Weather History for Panama City Tyndall AFB, FL

Change the Weather History Date:

Friday, November 30, 2012

  Actual Average Record
Temperature  
Mean Temperature 62 °F -  
Max Temperature 72 °F 66 °F 77 °F (1998)
Min Temperature 52 °F 47 °F 35 °F (2003)
Degree Days  
Heating Degree Days 3    
Growing Degree Days 12 (Base 50)    
Moisture  
Dew Point 56 °F    
Average Humidity 87    
Maximum Humidity 99    
Minimum Humidity 63    
Precipitation  
Precipitation 0.00 in - - ()
Sea Level Pressure  
Sea Level Pressure 30.27 in    
Wind  
Wind Speed 7 mph (East)    
Max Wind Speed 13 mph    
Max Gust Speed -    
Visibility 10 miles    
Events      
Averages and records for this station are not official NWS values.
T = Trace of Precipitation, MM = Missing Value Source: NWS Daily Summary

Daily Weather History Graph

Daily Weather History Graph

Search for Another Location

Airport:

Trip Planner

Search our weather history database for the weather conditions in past years. The results will help you decide how hot, cold, wet, or windy it might be!

Date:

Astronomy

Nov. 30, 2012 Rise Set
Actual Time 6:20 AM CST 4:41 PM CST
Civil Twilight 5:54 AM CST 5:07 PM CST
Nautical Twilight 5:24 AM CST 5:37 PM CST
Astronomical Twilight 4:55 AM CST 6:06 PM CST
Moon 6:35 PM CST (11/30) 7:52 AM CST (11/30)
Length of Visible Light 11h 13m
Length of Day
10h 21m
Waning Gibbous, 96% of the Moon is Illuminated
Nov 30
Waning Gibbous
Dec 6
Last Quarter
Dec 13
New
Dec 19
First Quarter
Dec 28
Full

Hourly Weather History & Observations

Time (CST) Temp. Dew Point Humidity Pressure Visibility Wind Dir Wind Speed Gust Speed Precip Events Conditions
12:55 AM 54.9 °F 52.7 °F 92% 30.27 in 10.0 mi East 6.9 mph - N/A   Partly Cloudy
1:55 AM 54.9 °F 53.2 °F 94% 30.28 in 10.0 mi ENE 6.9 mph - N/A   Mostly Cloudy
2:55 AM 54.3 °F 53.4 °F 97% 30.29 in 10.0 mi East 9.2 mph - N/A   Overcast
3:55 AM 53.4 °F 52.9 °F 98% 30.28 in 10.0 mi East 6.9 mph - N/A   Mostly Cloudy
4:55 AM 53.1 °F 52.9 °F 99% 30.28 in 10.0 mi ENE 3.5 mph - N/A   Overcast
5:55 AM 53.4 °F 53.1 °F 99% 30.30 in 10.0 mi Variable 4.6 mph - N/A   Overcast
6:55 AM 53.6 °F 53.2 °F 99% 30.30 in 10.0 mi ENE 5.8 mph - N/A   Mostly Cloudy
7:55 AM 55.4 °F 53.6 °F 94% 30.31 in 10.0 mi ENE 5.8 mph - N/A   Partly Cloudy
8:55 AM 59.0 °F 55.4 °F 88% 30.31 in 10.0 mi East 8.1 mph - N/A   Scattered Clouds
9:55 AM 64.9 °F 56.7 °F 74% 30.30 in 10.0 mi East 9.2 mph - N/A   Clear
10:55 AM 69.4 °F 59.4 °F 70% 30.29 in 10.0 mi ESE 5.8 mph - N/A   Scattered Clouds
11:55 AM 72.7 °F 59.4 °F 63% 30.26 in 10.0 mi ESE 6.9 mph - N/A   Clear
12:55 PM 72.9 °F 60.6 °F 65% 30.25 in 10.0 mi SSW 10.4 mph - N/A   Scattered Clouds
1:55 PM 72.5 °F 60.8 °F 67% 30.22 in 10.0 mi South 11.5 mph - N/A   Mostly Cloudy
2:55 PM 71.2 °F 60.1 °F 68% 30.22 in 10.0 mi SSE 12.7 mph - N/A   Overcast
3:55 PM 69.3 °F 59.2 °F 70% 30.23 in 10.0 mi SSE 8.1 mph - N/A   Scattered Clouds
4:55 PM 63.3 °F 57.4 °F 81% 30.23 in 10.0 mi ESE 5.8 mph - N/A   Clear
5:55 PM 60.1 °F 56.1 °F 87% 30.25 in 10.0 mi Calm Calm - N/A   Clear
6:55 PM 55.9 °F 54.5 °F 95% 30.25 in 10.0 mi Calm Calm - N/A   Clear
7:55 PM 56.3 °F 54.9 °F 95% 30.25 in 10.0 mi East 4.6 mph - N/A   Clear
8:55 PM 55.4 °F 55.0 °F 99% 30.25 in 10.0 mi ENE 4.6 mph - N/A   Clear
9:55 PM 52.9 °F 52.7 °F 99% 30.26 in 10.0 mi NE 3.5 mph - N/A   Clear
10:55 PM 54.1 °F 53.8 °F 99% 30.25 in 10.0 mi NE 5.8 mph - N/A   Clear
11:55 PM 55.2 °F 53.8 °F 95% 30.24 in 10.0 mi East 5.8 mph - N/A   Clear